GEFSMW_prec_meanprecacc_006.txt.gz
Total_Precipitation_Accumulation
0.00 0.00 0.00 0.01 0.03 0.07 0.14 0.14 0.12 0.08 0.07 0.09 0.10 0.09 0.08 0.07 0.06 0.03 0.04 0.08 0.10 0.16 0.26 0.18 0.22 0.28 0.28 0.26 0.23 0.16 0.09 0.05 0.08 0.06 0.02 0.01 0.01 0.03 0.03 0.02 0.01 0.01 0.02
0.00 0.00 0.00 0.00 0.01 0.02 0.05 0.08 0.07 0.04 0.05 0.04 0.04 0.03 0.01 0.01 0.02 0.01 0.01 0.03 0.06 0.12 0.22 0.18 0.14 0.17 0.18 0.13 0.11 0.13 0.12 0.09 0.12 0.11 0.08 0.04 0.03 0.01 0.01 0.02 0.02 0.02 0.03
0.01 0.01 0.01 0.01 0.00 0.01 0.01 0.01 0.01 0.01 0.01 0.01 0.01 0.00 0.00 0.00 0.00 0.00 0.01 0.01 0.02 0.04 0.07 0.09 0.10 0.15 0.22 0.21 0.20 0.21 0.20 0.16 0.15 0.16 0.13 0.09 0.04 0.03 0.03 0.06 0.06 0.07 0.09
0.00 0.00 0.00 0.00 0.00 0.00 0.00 0.00 0.00 0.00 0.00 0.00 0.00 0.00 0.00 0.00 0.00 0.01 0.01 0.01 0.02 0.03 0.04 0.05 0.05 0.10 0.16 0.17 0.14 0.15 0.15 0.14 0.10 0.11 0.11 0.13 0.10 0.09 0.06 0.07 0.11 0.11 0.13
0.00 0.00 0.00 0.00 0.00 0.00 0.00 0.00 0.00 0.00 0.00 0.00 0.00 0.00 0.00 0.01 0.01 0.00 0.01 0.01 0.02 0.03 0.04 0.04 0.04 0.06 0.08 0.09 0.07 0.07 0.07 0.06 0.04 0.05 0.07 0.14 0.17 0.19 0.15 0.11 0.11 0.08 0.07
0.00 0.00 0.00 0.00 0.00 0.00 0.00 0.00 0.00 0.00 0.00 0.01 0.01 0.02 0.03 0.02 0.02 0.01 0.01 0.01 0.02 0.04 0.06 0.07 0.07 0.09 0.09 0.08 0.08 0.07 0.06 0.04 0.03 0.03 0.05 0.09 0.15 0.20 0.22 0.18 0.13 0.08 0.07
0.00 0.00 0.00 0.00 0.00 0.00 0.00 0.00 0.00 0.00 0.00 0.00 0.01 0.02 0.02 0.01 0.01 0.01 0.01 0.01 0.02 0.03 0.06 0.11 0.12 0.12 0.11 0.10 0.10 0.10 0.08 0.06 0.04 0.05 0.05 0.07 0.13 0.18 0.18 0.16 0.11 0.08 0.07
0.00 0.00 0.00 0.00 0.00 0.00 0.00 0.00 0.00 0.00 0.00 0.00 0.00 0.00 0.00 0.00 0.00 0.00 0.01 0.01 0.02 0.05 0.08 0.09 0.09 0.09 0.09 0.08 0.08 0.05 0.05 0.07 0.10 0.11 0.09 0.09 0.13 0.18 0.14 0.10 0.07 0.06 0.09
0.00 0.00 0.00 0.00 0.00 0.00 0.00 0.00 0.00 0.00 0.00 0.00 0.00 0.00 0.00 0.00 0.00 0.00 0.02 0.03 0.05 0.07 0.08 0.07 0.07 0.08 0.07 0.06 0.05 0.05 0.07 0.10 0.10 0.12 0.15 0.15 0.15 0.15 0.12 0.07 0.04 0.05 0.05
0.00 0.00 0.00 0.00 0.00 0.00 0.00 0.00 0.00 0.00 0.00 0.00 0.00 0.00 0.00 0.00 0.00 0.01 0.04 0.05 0.05 0.06 0.09 0.12 0.12 0.11 0.09 0.12 0.16 0.14 0.10 0.15 0.19 0.22 0.24 0.21 0.21 0.18 0.11 0.05 0.04 0.02 0.01
0.00 0.00 0.00 0.00 0.00 0.00 0.00 0.00 0.00 0.00 0.00 0.00 0.00 0.01 0.00 0.00 0.00 0.00 0.02 0.03 0.04 0.06 0.10 0.15 0.17 0.17 0.21 0.34 0.45 0.42 0.30 0.31 0.32 0.30 0.29 0.27 0.24 0.15 0.06 0.02 0.02 0.01 0.00
0.00 0.00 0.00 0.00 0.00 0.00 0.00 0.00 0.00 0.00 0.00 0.01 0.01 0.01 0.01 0.01 0.00 0.00 0.00 0.01 0.03 0.04 0.04 0.07 0.10 0.13 0.17 0.26 0.48 0.59 0.55 0.47 0.33 0.27 0.27 0.21 0.11 0.04 0.02 0.01 0.00 0.00 0.00
0.00 0.00 0.00 0.00 0.00 0.00 0.00 0.00 0.00 0.00 0.00 0.00 0.01 0.01 0.01 0.01 0.00 0.00 0.00 0.01 0.02 0.03 0.03 0.05 0.09 0.14 0.15 0.17 0.29 0.40 0.40 0.31 0.21 0.18 0.15 0.09 0.04 0.01 0.01 0.00 0.00 0.00 0.00
0.00 0.00 0.00 0.00 0.00 0.00 0.00 0.00 0.00 0.00 0.00 0.00 0.01 0.01 0.00 0.01 0.02 0.02 0.02 0.03 0.02 0.02 0.04 0.08 0.12 0.13 0.10 0.09 0.15 0.20 0.18 0.13 0.07 0.05 0.04 0.02 0.01 0.00 0.00 0.00 0.00 0.00 0.00
0.00 0.00 0.00 0.00 0.00 0.00 0.00 0.00 0.00 0.00 0.00 0.00 0.02 0.01 0.01 0.01 0.00 0.01 0.02 0.02 0.01 0.00 0.03 0.08 0.10 0.08 0.05 0.09 0.14 0.13 0.08 0.04 0.02 0.01 0.00 0.00 0.00 0.00 0.00 0.00 0.00 0.00 0.00
0.00 0.00 0.00 0.00 0.00 0.00 0.00 0.00 0.00 0.00 0.00 0.01 0.04 0.02 0.02 0.02 0.00 0.01 0.01 0.01 0.00 0.00 0.01 0.02 0.04 0.04 0.03 0.06 0.08 0.05 0.03 0.01 0.00 0.00 0.00 0.00 0.00 0.00 0.00 0.00 0.00 0.00 0.00
0.00 0.00 0.00 0.00 0.00 0.00 0.00 0.00 0.00 0.00 0.00 0.01 0.06 0.06 0.05 0.04 0.01 0.00 0.00 0.00 0.00 0.00 0.00 0.00 0.00 0.00 0.00 0.01 0.01 0.01 0.00 0.00 0.00 0.00 0.00 0.00 0.00 0.00 0.00 0.00 0.00 0.00 0.00
0.00 0.00 0.00 0.00 0.00 0.00 0.00 0.01 0.01 0.01 0.00 0.01 0.06 0.09 0.08 0.05 0.02 0.00 0.00 0.00 0.00 0.00 0.00 0.00 0.00 0.00 0.00 0.00 0.00 0.00 0.00 0.00 0.00 0.00 0.00 0.00 0.00 0.00 0.00 0.00 0.00 0.00 0.00
0.00 0.00 0.00 0.00 0.00 0.01 0.01 0.02 0.02 0.02 0.02 0.02 0.03 0.06 0.09 0.07 0.03 0.01 0.00 0.00 0.00 0.00 0.00 0.00 0.00 0.00 0.00 0.00 0.00 0.00 0.00 0.00 0.00 0.00 0.00 0.00 0.00 0.00 0.00 0.00 0.00 0.00 0.00
0.00 0.00 0.01 0.01 0.02 0.02 0.03 0.03 0.04 0.05 0.05 0.05 0.06 0.08 0.09 0.08 0.03 0.01 0.00 0.00 0.00 0.00 0.00 0.00 0.00 0.00 0.00 0.00 0.00 0.00 0.00 0.00 0.00 0.00 0.00 0.00 0.00 0.00 0.00 0.00 0.00 0.00 0.00
0.00 0.01 0.01 0.02 0.04 0.06 0.08 0.10 0.12 0.13 0.12 0.12 0.12 0.13 0.12 0.09 0.04 0.01 0.00 0.01 0.01 0.00 0.01 0.01 0.01 0.00 0.00 0.00 0.00 0.00 0.00 0.01 0.01 0.00 0.00 0.00 0.00 0.00 0.00 0.00 0.00 0.00 0.00
0.00 0.01 0.02 0.02 0.04 0.07 0.10 0.14 0.15 0.16 0.16 0.17 0.16 0.17 0.16 0.11 0.05 0.01 0.00 0.01 0.01 0.01 0.01 0.04 0.03 0.01 0.00 0.00 0.00 0.00 0.00 0.00 0.00 0.00 0.00 0.00 0.00 0.00 0.00 0.00 0.00 0.00 0.00
0.00 0.00 0.01 0.02 0.03 0.04 0.06 0.08 0.11 0.11 0.12 0.14 0.15 0.16 0.18 0.13 0.08 0.04 0.01 0.01 0.01 0.01 0.01 0.02 0.05 0.04 0.01 0.00 0.00 0.00 0.00 0.00 0.00 0.00 0.00 0.00 0.00 0.00 0.00 0.00 0.00 0.00 0.00
0.00 0.00 0.00 0.01 0.01 0.02 0.04 0.05 0.09 0.13 0.13 0.14 0.14 0.15 0.15 0.15 0.12 0.08 0.04 0.01 0.01 0.01 0.01 0.01 0.03 0.04 0.02 0.00 0.00 0.00 0.00 0.00 0.00 0.00 0.00 0.00 0.00 0.00 0.00 0.00 0.00 0.00 0.00
0.00 0.00 0.00 0.00 0.01 0.01 0.01 0.02 0.04 0.10 0.13 0.13 0.14 0.16 0.16 0.16 0.15 0.11 0.10 0.05 0.02 0.01 0.01 0.01 0.01 0.01 0.00 0.00 0.00 0.00 0.00 0.00 0.00 0.00 0.00 0.00 0.00 0.00 0.00 0.00 0.00 0.00 0.00
0.00 0.00 0.00 0.00 0.00 0.00 0.00 0.00 0.01 0.06 0.11 0.13 0.13 0.16 0.17 0.18 0.16 0.13 0.11 0.09 0.04 0.02 0.01 0.02 0.02 0.00 0.00 0.00 0.00 0.00 0.00 0.00 0.00 0.00 0.00 0.00 0.00 0.00 0.00 0.00 0.00 0.00 0.00

GEFSMW_prec_meanprecacc_012.txt.gz
Total_Precipitation_Accumulation
0.06 0.05 0.03 0.02 0.03 0.08 0.14 0.15 0.13 0.10 0.09 0.12 0.14 0.13 0.11 0.09 0.08 0.05 0.05 0.09 0.11 0.18 0.30 0.21 0.25 0.39 0.42 0.35 0.37 0.39 0.31 0.19 0.30 0.30 0.11 0.03 0.02 0.03 0.03 0.02 0.02 0.02 0.02
0.04 0.02 0.01 0.00 0.01 0.02 0.05 0.08 0.07 0.04 0.05 0.04 0.04 0.03 0.01 0.01 0.02 0.01 0.01 0.03 0.07 0.13 0.24 0.20 0.15 0.20 0.22 0.17 0.18 0.27 0.28 0.23 0.34 0.37 0.25 0.08 0.04 0.02 0.02 0.03 0.02 0.02 0.03
0.02 0.01 0.01 0.01 0.00 0.01 0.01 0.01 0.01 0.01 0.01 0.01 0.01 0.00 0.00 0.00 0.00 0.00 0.01 0.01 0.02 0.04 0.07 0.09 0.11 0.16 0.23 0.22 0.22 0.26 0.28 0.21 0.21 0.28 0.29 0.18 0.06 0.04 0.05 0.07 0.06 0.07 0.11
0.01 0.00 0.00 0.00 0.00 0.00 0.00 0.00 0.00 0.00 0.00 0.00 0.00 0.00 0.00 0.00 0.00 0.01 0.01 0.01 0.02 0.03 0.04 0.05 0.05 0.10 0.17 0.17 0.15 0.16 0.18 0.16 0.12 0.15 0.17 0.20 0.16 0.12 0.07 0.08 0.11 0.13 0.16
0.00 0.00 0.00 0.00 0.00 0.00 0.00 0.00 0.00 0.00 0.00 0.00 0.00 0.00 0.00 0.01 0.01 0.00 0.01 0.01 0.02 0.03 0.04 0.04 0.04 0.06 0.08 0.09 0.08 0.08 0.09 0.08 0.06 0.07 0.10 0.19 0.23 0.24 0.18 0.12 0.11 0.09 0.11
0.00 0.00 0.00 0.00 0.00 0.00 0.00 0.00 0.00 0.00 0.00 0.01 0.01 0.02 0.03 0.02 0.02 0.01 0.01 0.01 0.02 0.04 0.06 0.07 0.07 0.09 0.09 0.09 0.08 0.09 0.07 0.06 0.05 0.05 0.08 0.13 0.20 0.24 0.26 0.21 0.15 0.11 0.11
0.00 0.00 0.00 0.00 0.00 0.00 0.00 0.00 0.00 0.00 0.00 0.00 0.01 0.02 0.02 0.01 0.01 0.01 0.01 0.01 0.02 0.03 0.06 0.11 0.12 0.12 0.11 0.10 0.11 0.11 0.09 0.08 0.07 0.07 0.08 0.11 0.17 0.22 0.22 0.20 0.15 0.12 0.13
0.00 0.00 0.00 0.00 0.00 0.00 0.00 0.00 0.00 0.00 0.00 0.00 0.00 0.00 0.00 0.00 0.00 0.00 0.01 0.01 0.03 0.05 0.08 0.09 0.09 0.09 0.09 0.09 0.10 0.08 0.08 0.11 0.14 0.16 0.15 0.15 0.20 0.27 0.24 0.20 0.17 0.14 0.19
0.00 0.00 0.00 0.00 0.00 0.00 0.00 0.00 0.00 0.00 0.00 0.00 0.00 0.00 0.00 0.00 0.00 0.00 0.02 0.03 0.05 0.07 0.08 0.07 0.07 0.08 0.08 0.08 0.09 0.10 0.12 0.15 0.16 0.20 0.26 0.26 0.27 0.28 0.26 0.21 0.18 0.18 0.20
0.00 0.00 0.00 0.00 0.00 0.00 0.00 0.00 0.00 0.00 0.00 0.00 0.00 0.00 0.00 0.00 0.00 0.01 0.04 0.05 0.05 0.06 0.09 0.12 0.12 0.11 0.10 0.14 0.19 0.18 0.14 0.20 0.26 0.33 0.38 0.36 0.37 0.34 0.27 0.22 0.18 0.12 0.13
0.00 0.00 0.00 0.00 0.00 0.00 0.00 0.00 0.00 0.00 0.00 0.00 0.00 0.01 0.00 0.00 0.00 0.00 0.02 0.03 0.04 0.07 0.11 0.15 0.17 0.18 0.22 0.36 0.48 0.46 0.36 0.39 0.43 0.46 0.51 0.50 0.46 0.39 0.27 0.18 0.13 0.08 0.06
0.00 0.00 0.00 0.00 0.00 0.00 0.00 0.00 0.00 0.00 0.00 0.01 0.01 0.01 0.01 0.01 0.00 0.00 0.00 0.01 0.03 0.04 0.05 0.07 0.11 0.15 0.19 0.29 0.55 0.69 0.68 0.63 0.52 0.49 0.57 0.57 0.47 0.34 0.23 0.17 0.12 0.07 0.04
0.00 0.00 0.00 0.00 0.00 0.00 0.00 0.00 0.00 0.00 0.00 0.00 0.01 0.01 0.01 0.01 0.00 0.00 0.00 0.01 0.02 0.03 0.03 0.05 0.10 0.16 0.17 0.21 0.38 0.57 0.64 0.62 0.54 0.52 0.49 0.43 0.36 0.29 0.20 0.13 0.08 0.05 0.02
0.00 0.00 0.00 0.00 0.00 0.00 0.00 0.00 0.00 0.00 0.00 0.00 0.01 0.01 0.01 0.01 0.02 0.02 0.02 0.03 0.02 0.02 0.04 0.08 0.13 0.15 0.13 0.15 0.27 0.39 0.47 0.47 0.44 0.41 0.34 0.26 0.20 0.19 0.15 0.09 0.05 0.02 0.01
0.00 0.00 0.00 0.00 0.00 0.00 0.00 0.00 0.00 0.00 0.00 0.01 0.02 0.02 0.01 0.01 0.01 0.02 0.03 0.02 0.01 0.00 0.03 0.08 0.11 0.09 0.08 0.16 0.27 0.28 0.25 0.26 0.26 0.24 0.18 0.13 0.09 0.08 0.06 0.04 0.02 0.01 0.01
0.00 0.01 0.01 0.01 0.00 0.00 0.00 0.00 0.00 0.00 0.00 0.02 0.04 0.02 0.02 0.02 0.01 0.01 0.01 0.01 0.00 0.00 0.01 0.02 0.05 0.04 0.05 0.13 0.18 0.15 0.12 0.10 0.09 0.09 0.07 0.05 0.03 0.02 0.01 0.00 0.00 0.00 0.00
0.05 0.05 0.04 0.03 0.01 0.01 0.00 0.00 0.00 0.01 0.01 0.02 0.07 0.07 0.06 0.05 0.02 0.01 0.01 0.01 0.00 0.00 0.00 0.00 0.00 0.01 0.02 0.03 0.05 0.04 0.03 0.02 0.02 0.02 0.02 0.01 0.01 0.00 0.00 0.00 0.00 0.00 0.00
0.06 0.04 0.02 0.01 0.00 0.00 0.01 0.01 0.01 0.02 0.01 0.02 0.07 0.11 0.10 0.08 0.04 0.03 0.02 0.01 0.01 0.00 0.00 0.00 0.00 0.00 0.00 0.00 0.00 0.01 0.01 0.00 0.00 0.00 0.00 0.00 0.00 0.00 0.00 0.00 0.00 0.00 0.00
0.02 0.01 0.01 0.01 0.01 0.01 0.01 0.02 0.02 0.02 0.03 0.03 0.06 0.10 0.13 0.11 0.08 0.06 0.06 0.04 0.03 0.01 0.00 0.00 0.00 0.00 0.00 0.00 0.00 0.00 0.00 0.00 0.00 0.00 0.00 0.00 0.00 0.00 0.00 0.00 0.00 0.00 0.00
0.00 0.01 0.01 0.01 0.02 0.02 0.03 0.03 0.04 0.05 0.06 0.06 0.08 0.11 0.14 0.14 0.11 0.10 0.10 0.08 0.06 0.03 0.01 0.00 0.00 0.00 0.00 0.00 0.00 0.00 0.00 0.00 0.00 0.00 0.00 0.00 0.00 0.00 0.00 0.00 0.00 0.00 0.00
0.00 0.01 0.01 0.02 0.04 0.06 0.08 0.10 0.12 0.13 0.12 0.12 0.13 0.16 0.17 0.17 0.15 0.14 0.13 0.13 0.11 0.07 0.02 0.02 0.01 0.00 0.00 0.00 0.00 0.00 0.00 0.01 0.01 0.00 0.00 0.00 0.00 0.00 0.00 0.00 0.00 0.00 0.00
0.00 0.01 0.02 0.02 0.04 0.07 0.11 0.14 0.15 0.16 0.16 0.18 0.17 0.19 0.21 0.20 0.17 0.17 0.18 0.21 0.20 0.14 0.06 0.05 0.03 0.01 0.00 0.00 0.00 0.00 0.00 0.00 0.00 0.00 0.00 0.00 0.00 0.00 0.00 0.00 0.00 0.00 0.00
0.00 0.00 0.01 0.02 0.03 0.05 0.06 0.08 0.11 0.11 0.12 0.14 0.15 0.19 0.24 0.25 0.24 0.23 0.23 0.29 0.32 0.27 0.13 0.04 0.05 0.04 0.01 0.00 0.00 0.00 0.00 0.00 0.00 0.00 0.00 0.00 0.00 0.00 0.00 0.00 0.00 0.00 0.00
0.00 0.00 0.00 0.01 0.01 0.02 0.04 0.05 0.09 0.13 0.14 0.14 0.14 0.17 0.21 0.27 0.33 0.35 0.33 0.36 0.41 0.37 0.21 0.05 0.03 0.04 0.02 0.00 0.00 0.00 0.00 0.00 0.00 0.00 0.00 0.00 0.00 0.00 0.00 0.00 0.00 0.00 0.00
0.00 0.00 0.00 0.00 0.01 0.01 0.01 0.02 0.04 0.10 0.13 0.14 0.14 0.17 0.21 0.27 0.36 0.41 0.43 0.42 0.43 0.44 0.29 0.09 0.02 0.01 0.00 0.00 0.00 0.00 0.00 0.00 0.00 0.00 0.00 0.00 0.00 0.00 0.00 0.00 0.00 0.00 0.00
0.00 0.00 0.00 0.00 0.00 0.00 0.00 0.00 0.01 0.06 0.11 0.13 0.14 0.17 0.22 0.28 0.35 0.42 0.46 0.43 0.40 0.38 0.30 0.14 0.05 0.01 0.00 0.00 0.00 0.00 0.00 0.00 0.00 0.00 0.00 0.00 0.00 0.00 0.00 0.00 0.00 0.00 0.00

GEFSMW_prec_meanprecacc_018.txt.gz
Total_Precipitation_Accumulation
0.07 0.06 0.03 0.02 0.04 0.08 0.14 0.15 0.14 0.11 0.11 0.13 0.15 0.13 0.11 0.10 0.08 0.05 0.05 0.09 0.11 0.18 0.30 0.21 0.25 0.40 0.42 0.36 0.39 0.41 0.34 0.22 0.36 0.39 0.16 0.06 0.04 0.05 0.04 0.03 0.02 0.02 0.02
0.06 0.03 0.01 0.00 0.01 0.02 0.05 0.08 0.07 0.05 0.05 0.04 0.04 0.03 0.01 0.01 0.02 0.01 0.01 0.03 0.07 0.13 0.24 0.20 0.15 0.21 0.23 0.18 0.18 0.28 0.29 0.24 0.37 0.42 0.30 0.11 0.05 0.03 0.02 0.03 0.02 0.02 0.03
0.03 0.02 0.02 0.01 0.00 0.01 0.01 0.01 0.01 0.01 0.01 0.01 0.01 0.00 0.00 0.00 0.00 0.00 0.01 0.01 0.02 0.04 0.07 0.09 0.11 0.16 0.23 0.22 0.22 0.27 0.29 0.22 0.22 0.31 0.33 0.20 0.07 0.05 0.05 0.08 0.07 0.08 0.11
0.02 0.02 0.02 0.01 0.00 0.00 0.00 0.00 0.00 0.00 0.00 0.00 0.00 0.00 0.00 0.00 0.00 0.01 0.01 0.01 0.02 0.03 0.04 0.05 0.05 0.10 0.17 0.17 0.15 0.17 0.19 0.18 0.14 0.17 0.20 0.22 0.18 0.14 0.08 0.09 0.12 0.14 0.17
0.02 0.02 0.01 0.00 0.00 0.00 0.00 0.00 0.00 0.00 0.00 0.01 0.01 0.01 0.00 0.01 0.01 0.00 0.01 0.01 0.02 0.03 0.04 0.04 0.04 0.06 0.08 0.09 0.09 0.09 0.11 0.10 0.08 0.09 0.12 0.22 0.27 0.28 0.21 0.13 0.12 0.12 0.12
0.03 0.03 0.02 0.01 0.00 0.00 0.00 0.00 0.00 0.01 0.01 0.01 0.02 0.03 0.03 0.03 0.02 0.01 0.01 0.01 0.02 0.04 0.06 0.07 0.08 0.09 0.10 0.09 0.10 0.10 0.10 0.09 0.08 0.09 0.12 0.18 0.24 0.28 0.29 0.23 0.17 0.16 0.18
0.10 0.08 0.06 0.03 0.01 0.00 0.00 0.00 0.00 0.01 0.01 0.01 0.02 0.03 0.02 0.02 0.02 0.01 0.01 0.01 0.02 0.03 0.06 0.11 0.12 0.12 0.12 0.11 0.12 0.13 0.12 0.12 0.11 0.12 0.13 0.16 0.23 0.29 0.31 0.28 0.23 0.22 0.25
0.13 0.11 0.08 0.06 0.03 0.02 0.01 0.00 0.00 0.00 0.00 0.00 0.00 0.01 0.01 0.01 0.00 0.00 0.01 0.01 0.03 0.05 0.08 0.09 0.09 0.09 0.09 0.10 0.11 0.10 0.10 0.14 0.18 0.20 0.20 0.21 0.26 0.35 0.35 0.33 0.31 0.28 0.33
0.07 0.06 0.04 0.03 0.02 0.01 0.01 0.00 0.00 0.00 0.00 0.00 0.00 0.01 0.01 0.01 0.01 0.01 0.02 0.03 0.05 0.07 0.08 0.07 0.07 0.08 0.08 0.09 0.10 0.11 0.14 0.19 0.20 0.24 0.31 0.32 0.34 0.37 0.37 0.35 0.35 0.37 0.38
0.02 0.02 0.02 0.01 0.01 0.00 0.00 0.00 0.00 0.00 0.00 0.00 0.00 0.01 0.01 0.01 0.02 0.02 0.04 0.06 0.06 0.06 0.09 0.12 0.12 0.11 0.10 0.14 0.20 0.19 0.17 0.24 0.31 0.38 0.43 0.43 0.45 0.44 0.38 0.36 0.36 0.35 0.37
0.01 0.01 0.01 0.01 0.00 0.00 0.00 0.00 0.00 0.00 0.00 0.00 0.01 0.01 0.02 0.02 0.02 0.03 0.04 0.05 0.05 0.07 0.11 0.15 0.17 0.18 0.22 0.36 0.49 0.47 0.37 0.42 0.47 0.51 0.56 0.58 0.56 0.51 0.40 0.34 0.31 0.28 0.28
0.00 0.00 0.00 0.00 0.00 0.00 0.00 0.00 0.00 0.00 0.00 0.01 0.01 0.01 0.03 0.04 0.04 0.04 0.04 0.05 0.05 0.05 0.05 0.07 0.11 0.15 0.19 0.30 0.56 0.70 0.69 0.65 0.55 0.55 0.64 0.66 0.57 0.46 0.37 0.32 0.28 0.23 0.20
0.00 0.00 0.00 0.00 0.00 0.00 0.01 0.01 0.00 0.00 0.00 0.00 0.01 0.01 0.02 0.03 0.04 0.04 0.06 0.07 0.06 0.06 0.04 0.05 0.10 0.16 0.17 0.21 0.39 0.58 0.65 0.63 0.56 0.56 0.57 0.55 0.52 0.43 0.35 0.27 0.21 0.16 0.14
0.00 0.00 0.00 0.00 0.00 0.00 0.00 0.00 0.00 0.00 0.00 0.00 0.01 0.01 0.01 0.02 0.04 0.05 0.07 0.08 0.08 0.06 0.06 0.09 0.13 0.15 0.13 0.15 0.27 0.40 0.48 0.49 0.48 0.47 0.44 0.42 0.39 0.37 0.33 0.25 0.19 0.14 0.12
0.00 0.00 0.00 0.00 0.00 0.00 0.00 0.00 0.01 0.01 0.01 0.02 0.03 0.02 0.02 0.02 0.01 0.03 0.05 0.06 0.06 0.05 0.07 0.11 0.12 0.09 0.08 0.17 0.27 0.29 0.26 0.29 0.31 0.30 0.26 0.26 0.30 0.32 0.30 0.23 0.16 0.13 0.12
0.02 0.02 0.02 0.02 0.03 0.02 0.03 0.03 0.03 0.04 0.04 0.06 0.08 0.06 0.05 0.05 0.03 0.04 0.03 0.04 0.05 0.06 0.06 0.06 0.07 0.05 0.06 0.13 0.18 0.15 0.13 0.12 0.13 0.13 0.12 0.11 0.13 0.17 0.19 0.17 0.11 0.07 0.06
0.08 0.07 0.07 0.05 0.04 0.03 0.02 0.02 0.02 0.02 0.03 0.05 0.09 0.09 0.08 0.07 0.04 0.03 0.03 0.03 0.04 0.07 0.07 0.06 0.05 0.03 0.03 0.04 0.05 0.04 0.03 0.03 0.04 0.04 0.04 0.03 0.04 0.05 0.05 0.04 0.03 0.03 0.02
0.07 0.04 0.03 0.01 0.01 0.00 0.01 0.01 0.01 0.02 0.02 0.03 0.08 0.11 0.11 0.08 0.05 0.04 0.04 0.05 0.05 0.07 0.09 0.09 0.08 0.06 0.04 0.00 0.00 0.01 0.01 0.01 0.01 0.01 0.01 0.01 0.02 0.02 0.02 0.02 0.01 0.01 0.00
0.02 0.01 0.01 0.01 0.01 0.01 0.01 0.02 0.02 0.03 0.03 0.04 0.06 0.10 0.13 0.11 0.08 0.07 0.08 0.08 0.09 0.09 0.11 0.12 0.12 0.10 0.07 0.01 0.00 0.00 0.00 0.00 0.00 0.00 0.00 0.00 0.00 0.01 0.01 0.01 0.01 0.00 0.00
0.00 0.01 0.01 0.01 0.02 0.02 0.03 0.03 0.04 0.05 0.06 0.06 0.08 0.11 0.15 0.15 0.12 0.11 0.12 0.12 0.12 0.14 0.15 0.16 0.15 0.14 0.12 0.04 0.01 0.00 0.00 0.01 0.01 0.00 0.00 0.00 0.00 0.00 0.00 0.00 0.00 0.00 0.00
0.00 0.01 0.01 0.02 0.04 0.06 0.08 0.10 0.12 0.13 0.13 0.13 0.14 0.17 0.18 0.19 0.16 0.16 0.15 0.16 0.18 0.19 0.20 0.21 0.19 0.19 0.19 0.09 0.01 0.00 0.01 0.01 0.01 0.00 0.00 0.00 0.00 0.00 0.00 0.00 0.01 0.00 0.00
0.00 0.01 0.02 0.02 0.04 0.07 0.11 0.14 0.15 0.16 0.16 0.18 0.18 0.20 0.23 0.22 0.18 0.19 0.21 0.24 0.26 0.27 0.29 0.34 0.33 0.27 0.23 0.14 0.04 0.01 0.01 0.00 0.00 0.00 0.00 0.00 0.00 0.00 0.00 0.00 0.00 0.00 0.00
0.00 0.00 0.01 0.02 0.03 0.05 0.07 0.09 0.11 0.12 0.12 0.15 0.16 0.20 0.26 0.27 0.26 0.26 0.26 0.31 0.37 0.40 0.40 0.41 0.43 0.38 0.30 0.21 0.09 0.03 0.01 0.00 0.00 0.00 0.00 0.00 0.00 0.00 0.00 0.00 0.00 0.00 0.00
0.00 0.00 0.00 0.01 0.01 0.03 0.05 0.06 0.10 0.14 0.15 0.16 0.16 0.19 0.23 0.29 0.36 0.38 0.36 0.38 0.44 0.48 0.49 0.46 0.41 0.37 0.34 0.28 0.14 0.04 0.01 0.00 0.00 0.00 0.00 0.00 0.00 0.00 0.00 0.00 0.00 0.00 0.00
0.00 0.00 0.00 0.01 0.02 0.02 0.03 0.03 0.06 0.13 0.16 0.16 0.17 0.20 0.23 0.29 0.38 0.44 0.45 0.44 0.47 0.53 0.51 0.44 0.36 0.30 0.28 0.27 0.17 0.05 0.01 0.00 0.00 0.00 0.00 0.00 0.00 0.00 0.00 0.00 0.00 0.00 0.00
0.00 0.01 0.01 0.01 0.02 0.02 0.03 0.03 0.05 0.11 0.16 0.17 0.17 0.20 0.24 0.30 0.37 0.45 0.48 0.44 0.42 0.43 0.45 0.39 0.31 0.23 0.21 0.24 0.21 0.09 0.03 0.01 0.00 0.00 0.00 0.00 0.00 0.00 0.00 0.00 0.00 0.00 0.00

GEFSMW_prec_meanprecacc_024.txt.gz
Total_Precipitation_Accumulation
0.12 0.17 0.17 0.13 0.16 0.24 0.27 0.23 0.19 0.15 0.13 0.15 0.16 0.14 0.11 0.10 0.08 0.05 0.05 0.09 0.11 0.18 0.30 0.21 0.25 0.40 0.42 0.36 0.39 0.42 0.35 0.23 0.39 0.42 0.18 0.07 0.04 0.06 0.05 0.04 0.03 0.03 0.03
0.30 0.34 0.40 0.35 0.33 0.33 0.29 0.20 0.12 0.08 0.07 0.06 0.05 0.04 0.01 0.01 0.02 0.01 0.01 0.03 0.07 0.13 0.24 0.20 0.15 0.21 0.23 0.18 0.19 0.29 0.30 0.25 0.38 0.43 0.31 0.12 0.06 0.04 0.03 0.03 0.03 0.02 0.03
0.36 0.54 0.76 0.75 0.60 0.48 0.31 0.14 0.06 0.03 0.03 0.02 0.01 0.00 0.00 0.00 0.00 0.00 0.01 0.01 0.03 0.04 0.07 0.09 0.11 0.16 0.23 0.22 0.23 0.27 0.29 0.23 0.23 0.31 0.35 0.21 0.08 0.05 0.06 0.08 0.07 0.08 0.11
0.46 0.82 1.02 1.00 0.85 0.58 0.26 0.11 0.05 0.02 0.02 0.01 0.01 0.01 0.01 0.00 0.00 0.01 0.01 0.02 0.02 0.03 0.04 0.05 0.05 0.10 0.17 0.18 0.15 0.17 0.20 0.20 0.15 0.18 0.23 0.25 0.21 0.17 0.09 0.09 0.13 0.15 0.18
0.41 0.59 0.65 0.71 0.67 0.48 0.26 0.17 0.09 0.07 0.06 0.05 0.04 0.03 0.01 0.01 0.01 0.01 0.01 0.02 0.03 0.03 0.04 0.04 0.04 0.06 0.09 0.10 0.09 0.10 0.12 0.13 0.11 0.11 0.16 0.27 0.33 0.34 0.25 0.15 0.14 0.16 0.16
0.32 0.43 0.42 0.38 0.34 0.26 0.19 0.14 0.12 0.15 0.13 0.09 0.07 0.08 0.07 0.05 0.04 0.02 0.01 0.02 0.03 0.04 0.06 0.07 0.08 0.09 0.10 0.10 0.10 0.12 0.12 0.12 0.13 0.14 0.17 0.23 0.30 0.35 0.38 0.31 0.24 0.23 0.23
0.33 0.38 0.42 0.38 0.27 0.19 0.13 0.10 0.08 0.10 0.11 0.09 0.09 0.10 0.10 0.08 0.06 0.04 0.02 0.02 0.02 0.03 0.06 0.11 0.13 0.12 0.12 0.11 0.13 0.15 0.13 0.15 0.17 0.18 0.19 0.23 0.29 0.37 0.42 0.39 0.33 0.36 0.38
0.24 0.25 0.25 0.23 0.18 0.12 0.07 0.05 0.04 0.05 0.05 0.05 0.06 0.08 0.10 0.08 0.06 0.08 0.06 0.03 0.03 0.06 0.08 0.09 0.09 0.10 0.09 0.10 0.12 0.11 0.12 0.17 0.23 0.24 0.27 0.28 0.32 0.45 0.48 0.46 0.47 0.45 0.52
0.09 0.09 0.08 0.06 0.06 0.04 0.03 0.03 0.03 0.03 0.03 0.03 0.05 0.07 0.10 0.11 0.10 0.10 0.09 0.08 0.10 0.09 0.09 0.08 0.09 0.09 0.09 0.09 0.11 0.12 0.16 0.22 0.24 0.29 0.38 0.41 0.43 0.50 0.54 0.55 0.58 0.58 0.57
0.03 0.03 0.03 0.03 0.02 0.02 0.02 0.02 0.02 0.02 0.02 0.03 0.04 0.05 0.07 0.11 0.12 0.11 0.14 0.16 0.15 0.13 0.14 0.16 0.16 0.14 0.12 0.15 0.21 0.21 0.19 0.27 0.36 0.43 0.50 0.52 0.55 0.57 0.55 0.56 0.59 0.59 0.60
0.01 0.01 0.01 0.01 0.01 0.01 0.01 0.01 0.01 0.01 0.02 0.02 0.03 0.04 0.06 0.07 0.10 0.13 0.15 0.17 0.16 0.18 0.20 0.23 0.24 0.22 0.25 0.38 0.50 0.49 0.39 0.43 0.50 0.54 0.61 0.65 0.67 0.66 0.58 0.55 0.53 0.53 0.56
0.00 0.00 0.00 0.00 0.00 0.01 0.01 0.01 0.02 0.02 0.02 0.02 0.02 0.02 0.04 0.06 0.07 0.09 0.12 0.15 0.17 0.17 0.16 0.17 0.19 0.20 0.23 0.33 0.58 0.71 0.70 0.66 0.57 0.58 0.69 0.72 0.66 0.58 0.53 0.51 0.49 0.49 0.50
0.00 0.00 0.00 0.00 0.00 0.01 0.01 0.01 0.01 0.01 0.01 0.01 0.02 0.02 0.02 0.03 0.04 0.06 0.09 0.12 0.15 0.16 0.16 0.17 0.20 0.24 0.24 0.27 0.43 0.60 0.67 0.65 0.58 0.59 0.60 0.58 0.58 0.52 0.46 0.41 0.38 0.38 0.43
0.00 0.00 0.00 0.00 0.00 0.00 0.00 0.00 0.00 0.00 0.00 0.00 0.01 0.01 0.01 0.02 0.04 0.05 0.07 0.10 0.12 0.14 0.17 0.20 0.25 0.26 0.22 0.22 0.32 0.43 0.50 0.51 0.50 0.49 0.46 0.43 0.41 0.44 0.43 0.37 0.32 0.30 0.30
0.00 0.00 0.00 0.00 0.00 0.00 0.00 0.00 0.01 0.01 0.01 0.02 0.03 0.03 0.03 0.03 0.03 0.04 0.06 0.07 0.08 0.09 0.14 0.21 0.23 0.21 0.18 0.23 0.33 0.34 0.29 0.31 0.34 0.33 0.28 0.28 0.32 0.35 0.37 0.33 0.28 0.27 0.25
0.02 0.02 0.02 0.02 0.03 0.02 0.03 0.03 0.03 0.04 0.04 0.06 0.08 0.07 0.07 0.07 0.06 0.06 0.06 0.06 0.08 0.10 0.12 0.14 0.18 0.17 0.16 0.22 0.24 0.20 0.16 0.16 0.18 0.19 0.15 0.12 0.14 0.19 0.24 0.24 0.21 0.21 0.19
0.08 0.07 0.07 0.05 0.04 0.03 0.02 0.02 0.02 0.02 0.03 0.05 0.10 0.10 0.09 0.08 0.05 0.05 0.05 0.05 0.07 0.10 0.12 0.14 0.15 0.17 0.18 0.16 0.12 0.09 0.07 0.07 0.10 0.11 0.09 0.06 0.06 0.08 0.08 0.08 0.08 0.11 0.12
0.07 0.04 0.03 0.01 0.01 0.00 0.01 0.01 0.01 0.02 0.02 0.03 0.08 0.12 0.12 0.09 0.06 0.06 0.06 0.07 0.08 0.10 0.13 0.15 0.18 0.21 0.23 0.18 0.12 0.08 0.06 0.06 0.07 0.07 0.05 0.04 0.04 0.04 0.04 0.05 0.05 0.05 0.06
0.02 0.01 0.01 0.01 0.01 0.01 0.01 0.02 0.02 0.03 0.03 0.04 0.06 0.10 0.13 0.12 0.09 0.09 0.10 0.12 0.13 0.14 0.14 0.16 0.19 0.23 0.27 0.22 0.16 0.11 0.07 0.08 0.08 0.06 0.04 0.04 0.03 0.02 0.02 0.03 0.04 0.04 0.03
0.00 0.01 0.01 0.01 0.02 0.02 0.03 0.03 0.04 0.05 0.06 0.06 0.08 0.11 0.15 0.16 0.13 0.13 0.16 0.17 0.19 0.19 0.18 0.18 0.19 0.24 0.32 0.29 0.21 0.14 0.09 0.12 0.10 0.08 0.04 0.02 0.02 0.01 0.01 0.03 0.02 0.02 0.01
0.00 0.01 0.01 0.02 0.04 0.06 0.08 0.11 0.13 0.14 0.14 0.14 0.15 0.18 0.20 0.21 0.19 0.19 0.21 0.22 0.23 0.25 0.26 0.25 0.24 0.26 0.35 0.35 0.26 0.20 0.16 0.15 0.13 0.07 0.04 0.01 0.00 0.00 0.00 0.02 0.03 0.01 0.00
0.00 0.01 0.02 0.02 0.04 0.08 0.13 0.17 0.18 0.18 0.19 0.21 0.21 0.24 0.27 0.25 0.20 0.25 0.31 0.35 0.37 0.36 0.35 0.40 0.37 0.34 0.36 0.38 0.31 0.24 0.20 0.19 0.15 0.08 0.03 0.01 0.01 0.00 0.00 0.01 0.01 0.00 0.00
0.00 0.00 0.02 0.02 0.04 0.07 0.10 0.13 0.14 0.16 0.17 0.20 0.21 0.26 0.32 0.34 0.33 0.35 0.37 0.44 0.48 0.48 0.46 0.48 0.52 0.48 0.44 0.44 0.38 0.30 0.22 0.21 0.17 0.08 0.03 0.01 0.00 0.00 0.00 0.00 0.00 0.00 0.00
0.00 0.00 0.01 0.03 0.04 0.05 0.07 0.10 0.14 0.20 0.22 0.23 0.23 0.26 0.31 0.37 0.44 0.48 0.46 0.48 0.52 0.56 0.58 0.55 0.51 0.50 0.48 0.51 0.44 0.35 0.25 0.23 0.21 0.09 0.02 0.01 0.00 0.00 0.00 0.00 0.00 0.00 0.00
0.01 0.02 0.04 0.06 0.06 0.06 0.06 0.07 0.11 0.21 0.26 0.26 0.26 0.29 0.32 0.37 0.47 0.54 0.55 0.52 0.55 0.60 0.60 0.53 0.46 0.44 0.44 0.51 0.50 0.37 0.30 0.30 0.24 0.11 0.02 0.00 0.00 0.00 0.00 0.00 0.00 0.00 0.00
0.04 0.07 0.08 0.09 0.09 0.08 0.08 0.09 0.13 0.22 0.29 0.30 0.29 0.32 0.35 0.40 0.46 0.55 0.58 0.50 0.45 0.46 0.48 0.42 0.34 0.30 0.32 0.44 0.50 0.43 0.35 0.33 0.25 0.11 0.02 0.00 0.00 0.00 0.00 0.00 0.00 0.00 0.00